Flag for Japan Weather past 2 weeks in Matsuyama, Japan

Now
72 °F

Overcast.


Feels Like: 75 °F
Forecast: 68 / 79 °F
Wind: 2 mph from East

Location: Matsuyama

Current Time: Sep 24, 2014 at 3:54:11 AM

Latest Report: Sep 24, 2014 at 3:00 AM


Visibility: 9 mi

Pressure: 30.00 "Hg

Humidity: 70%

Dew point: 62 °F

Location of MatsuyamaLocation

Historic Weather in Matsuyama — Graph

°F

Matsuyama temperature yesterday

Maximum temperature yesterday: 83 °F (at 1:00 PM)
Minimum temperature yesterday: 65 °F (at 6:00 AM)
Average temperature yesterday: 73 °F

Past Weeks' High & Low Weather Summary

 TemperatureHumidityPressure
High86 °F (Sep 14, 1:00 PM)95% (Sep 22, 6:00 AM)30.12 "Hg (Sep 22, 6:00 AM)
Low61 °F (Sep 21, 2:00 AM)32% (Sep 13, 4:00 PM)29.70 "Hg (Sep 9, 3:00 AM)
Average73 °F65%29.92 "Hg
* Reported Sep 9 2:00 AM — Sep 24 2:00 AM, Matsuyama, Weather by CustomWeather, © 2014

Note: Actual official high and low records may vary slightly from our data, if they occured in-between our weather recording intervals... More about our weather records

Advertising

Matsuyama weather history for previous 24 hours

 ConditionsComfort  
Time TempWeatherWind HumidityBarometerVisibility
2:00 AM
Sep 24
72 °FMild.2 mph69%30.02 "HgN/A
1:00 AM72 °FMild.3 mph66%30.03 "HgN/A
12:00 AM73 °FMild.2 mph66%30.04 "HgN/A
11:00 PM
Sep 23
73 °FMild.5 mph65%30.05 "HgN/A
10:00 PM73 °FMild.3 mph65%30.06 "HgN/A
9:00 PM73 °FOvercast.5 mph67%30.07 "Hg9 mi
8:00 PM74 °FMild.5 mph67%30.06 "HgN/A
7:00 PM74 °FMild.6 mph64%30.06 "HgN/A
6:00 PM77 °FOvercast.3 mph57%30.05 "Hg12 mi
5:00 PM78 °FWarm.3 mph51%30.05 "HgN/A
4:00 PM79 °FWarm.6 mph49%30.04 "HgN/A
3:00 PM80 °FOvercast.6 mph45%30.04 "Hg12 mi
2:00 PM82 °FWarm.8 mph44%30.04 "HgN/A
1:00 PM83 °FWarm.7 mph44%30.05 "HgN/A
12:00 PM82 °FOvercast.5 mph46%30.07 "Hg12 mi
11:00 AM80 °FWarm.5 mph45%30.09 "HgN/A
10:00 AM77 °FWarm.2 mph52%30.11 "HgN/A
9:00 AM73 °FOvercast.3 mph62%30.12 "Hg12 mi
8:00 AM69 °FMild.2 mph64%30.12 "HgN/A
7:00 AM66 °FMild.5 mph71%30.10 "HgN/A
6:00 AM65 °FOvercast.3 mph74%30.09 "Hg12 mi
5:00 AM65 °FMild.6 mph74%30.09 "HgN/A
4:00 AM65 °FMild.3 mph79%30.09 "HgN/A
3:00 AM66 °FOvercast.3 mph82%30.09 "Hg9 mi
Weather by CustomWeather, © 2014

See weather overviewHow to use our weather pages